Regional Weather Roundup
Issued by NWS

Home | Current Version | Previous Version | Text Only | Print | Product List | Glossary Off
Versions: 1 2 3 4 5 6 7 8 9 10 11 12 13 14 15 16 17 18 19 20 21 22 23 24 25 26 27 28 29 30 31 32 33 34 35 36 37 38 39 40 41 42 43 44 45 46 47 48 49 50

057
ASUS43 KMKX 162201
RWRWI

WISCONSIN REGIONAL WEATHER ROUNDUP
NATIONAL WEATHER SERVICE MILWAUKEE/SULLIVAN WI
500 PM CDT WED AUG 16 2017

NOTE: "FAIR" INDICATES FEW OR NO CLOUDS BELOW 12,000 FEET WITH NO
SIGNIFICANT WEATHER AND/OR OBSTRUCTIONS TO VISIBILITY.

WIZ001-002-006>008-014>016-023>028-162300-
NORTHWEST WISCONSIN

CITY           SKY/WX    TMP DP  RH WIND       PRES   REMARKS
SUPERIOR ARPT  LGT RAIN  62  61  97 NE12G18   29.90F
ASHLAND        PTSUNNY   72  61  68 NE12      29.90F
HAYWARD        CLOUDY    75  62  64 SE10      29.87F
SIREN          CLOUDY    75  65  70 E6        29.85S
CUMBERLAND     CLOUDY    73  63  68 E8        29.85F
RICE LAKE      CLOUDY    76  65  67 E9G18     29.86F
CHETEK         CLOUDY    76  67  73 MISG      29.85F
LADYSMITH      CLOUDY    77  64  63 E12       29.90F
EAU CLAIRE     NOT AVBL
MENOMONIE      MOSUNNY   79  68  68 E12       29.82F HX  81
NEW RICHMOND   PTSUNNY   76  66  71 E6        29.82F
OSCEOLA        CLOUDY    77  67  71 E13       29.84F
$$

WIZ003>005-009-010-017-018-162300-
NORTH CENTRAL WISCONSIN

CITY           SKY/WX    TMP DP  RH WIND       PRES   REMARKS
MANITOWISH WTR CLOUDY    72  60  67 E5        29.94F
ARBOR VITAE    MOSUNNY   77  62  59 E6        29.94F
WOODRUFF       MOSUNNY   77  62  59 E6        29.94F
RHINELANDER    CLOUDY    74  61  63 E9        29.96F
EAGLE RIVER    SUNNY     74  54  50 SE7       29.96S
LAND O LAKES   SUNNY     74  54  50 SE6       29.97F
PHILLIPS       PTSUNNY   74  64  69 E6        29.91F
TOMAHAWK         N/A     73  61  65 E6        29.94F
MEDFORD        CLOUDY    73  64  71 SE7       29.91F
MERRILL        CLOUDY    75  63  64 SE12      29.93F
$$

WIZ029-030-035-036-043>047-162300-
CENTRAL WISCONSIN

CITY           SKY/WX    TMP DP  RH WIND       PRES   REMARKS
WAUSAU         MOSUNNY   74  62  66 SE10      29.90F
MOSINEE        MOSUNNY   73  64  73 E12       29.93F
MARSHFIELD     CLOUDY    76  62  62 E15       29.88F
STEVENS POINT  PTSUNNY   75  62  63 E12G17    29.92F
WAUPACA        PTSUNNY   81  64  55 E9        29.92F HX  82
WAUTOMA        NOT AVBL
WISC RAPIDS    CLOUDY    78  65  63 E13       29.89F HX  80
CAMP DOUGLAS   NOT AVBL
$$

WIZ011>013-019>022-031-037>040-048>050-162300-
NORTHEAST WISCONSIN

CITY           SKY/WX    TMP DP  RH WIND       PRES   REMARKS
ANTIGO         CLOUDY    73  60  65 SE10      29.96F
SHAWANO        CLOUDY    78  64  61 E8        29.94F HX  80
OCONTO         SUNNY     73  61  67 E8        29.95F
STURGEON BAY   SUNNY     71  59  65 SE7       29.97
GREEN BAY      MOSUNNY   76  66  71 E8        29.94F
MANITOWOC      NOT AVBL
APPLETON       PTSUNNY   77  57  50 SE9       29.92F
CLINTONVILLE   CLOUDY    77  63  61 SE7       29.93F
OSHKOSH        CLOUDY    77  65  66 E12       29.91F
$$

WIZ032>034-041-042-053>061-162300-
SOUTHWEST WISCONSIN

CITY           SKY/WX    TMP DP  RH WIND       PRES   REMARKS
LA CROSSE      CLOUDY    85  69  58 E12G22    29.77F HX  89
SPARTA         CLOUDY    82  67  60 SE12G17   29.83F HX  85
VIROQUA        CLOUDY    78  70  77 E12G20    29.82F
BOSCOBEL       LGT RAIN  77  73  87 CALM      29.81F FOG
PRAIRIE DU CHI CLOUDY    76  71  85 E3        29.79S
PLATTEVILLE    CLOUDY    74  74  99 SE16G26   29.84F
$$

WIZ056-057-062-063-064-067-068-162300-
SOUTH CENTRAL WISCONSIN

CITY           SKY/WX    TMP DP  RH WIND       PRES   REMARKS
REEDSBURG      PTSUNNY   83  69  62 E10       29.84F HX  86
BARABOO/DELLS  MOSUNNY   82  65  56 E15       29.86F HX  84
LONE ROCK      NOT AVBL
MINERAL POINT  LGT RAIN  75  73  94 SE9G16    29.86S
MADISON        CLOUDY    81  70  69 E12       29.85F HX  84
MIDDLETON      PTSUNNY   82  69  64 SE10      29.86F HX  86
WATERTOWN      MOSUNNY   82  69  64 E13       29.88F HX  86
MONROE         RAIN      77  70  78 SE10      29.86S
JANESVILLE     DRIZZLE   82  72  69 SE8       29.85F HX  87
$$

WIZ051-052-058>065-066-070>072-162300-
SOUTHEAST WISCONSIN

CITY           SKY/WX    TMP DP  RH WIND       PRES   REMARKS
MILWAUKEE      PTSUNNY   76  66  71 E12       29.92F
WAUKESHA       SUNNY     77  64  65 E13       29.92F
MILWAUKEE/TIMM SUNNY     75  61  60 E7        29.93F
RACINE         SUNNY     77  68  73 NE9       29.93F
KENOSHA        SUNNY     76  68  76 E12       29.91F
FOND DU LAC    MOSUNNY   78  63  59 SE10      29.91F HX  80
SHEBOYGAN      MOSUNNY   72  66  81 E8        29.94F
WEST BEND      CLOUDY    73  63  68 E6        29.94S
JUNEAU         PTSUNNY   77  66  68 E12       29.91F
$$

LSZ147-162-162300-
LAKE SUPERIOR

STATION/POSITION TIME  TEMP    WIND        PRES    WAVE
                       AIR SEA DIR/SP/G            HT/PER
                 (UTC) (F)     (DEG/KT/KT) (MB)    (FT/S)
W MID LAKE BUOY  2050   62 61   50/ 10/ 12 1014.3F   1/ 3
DEVILS ISLAND    2100   62      60/ 13/ 14 1014.1F
SAXON HARBOR     2140   68      50/ 14/ 15 1011.9F
$$

LMZ867-665-643>646-162300-
LAKE MICHIGAN

STATION/POSITION TIME  TEMP    WIND        PRES    WAVE
                       AIR SEA DIR/SP/G            HT/PER
                 (UTC) (F)     (DEG/KT/KT) (MB)    (FT/S)
S GREEN BAY BUOY 2130   70 72   60/ 12/ 16 1014.3F
N MID LAKE BUOY  2050   68 69   60/ 10/ 10 1015.8F   1
NORTHPORT PIER   2140   68      70/  8/  9 1014.9F
KEWAUNEE LAKESHO 2130   70      70/  3/  6 1014.0F
SHEBOYGAN LAKESH 2100   68      60/  7/  8 1014.1F
PORT WASHINGTON  2140   73      60/  7/ 10 1014.6F
ATWATER BUOY     2009   71 72   70/  8/ 10 1014.6F
MILWAUKEE LAKESH 2150   72      50/  9/ 10   N/A
S MID LAKE BUOY  2050   73 73   50/  8/  8 1013.6F   1
KENOSHA   LAKESH 2100   73      60/  8/ 10 1012.9
$$

TC  - TEMPERATURE IN CELSIUS
VSB - VISIBILITY IN STATUTE MILES
WCI - WIND CHILL INDEX
HX  - HEAT INDEX





USA.gov is the U.S. government's official web portal to all federal, state and local government web resources and services.